Home   Weather   Nisí Nísyros   Past weeks
Flag for Greece

Past Weather in Nisí Nísyros, Greece — Yesterday and Last 2 Weeks

Now
91 °F

Sunny.


Feels Like: 89 °F
Forecast: 91 / 74 °F
Wind: 15 mph from North

Location: Kos Airport

Current Time: Jul 22, 2019 at 5:32:10 pm

Latest Report: Jul 22, 2019 at 4:20 pm


Visibility: 10 mi

Pressure: 29.80 "Hg

Humidity: 30%

Dew Point: 55 °F

Location of Nisí NísyrosLocation

Past Weather in Nisí Nísyros — Graph

°F

Nisí Nísyros Temperature Yesterday

Maximum temperature yesterday: 91 °F (at 3:20 pm)
Minimum temperature yesterday: 75 °F (at 12:20 am)
Average temperature yesterday: 82 °F

High & Low Weather Summary for the Past Weeks

 TemperatureHumidityPressure
High93 °F (Jul 9, 12:50 pm)94% (Jul 14, 6:20 am)29.89 "Hg (Jul 14, 6:20 am)
Low70 °F (Jul 12, 5:50 am)30% (Jul 22, 2:50 pm)29.56 "Hg (Jul 17, 5:50 am)
Average79 °F63%29.75 "Hg
* Reported Jul 7 4:20 pm — Jul 22 4:20 pm, Nisí Nísyros. Weather by CustomWeather, © 2019

Note: Actual official high and low records may vary slightly from our data, if they occured in-between our weather recording intervals... More about our weather records

Advertising

Nisí Nísyros Weather History for the Previous 24 Hours

Scroll right to see more
 ConditionsComfort  
Time TempWeatherWind HumidityBarometerVisibility
4:20 pm
Mon, Jul 22
91 °FSunny.15 mph30%29.80 "Hg10 mi
3:50 pm91 °FSunny.15 mph30%29.80 "Hg10 mi
2:50 pm91 °FSunny.15 mph30%29.80 "Hg10 mi
2:20 pm91 °FSunny.16 mph34%29.83 "Hg10 mi
1:50 pm90 °FSunny.14 mph33%29.83 "Hg10 mi
1:20 pm88 °FSunny.15 mph38%29.80 "Hg10 mi
12:50 pm86 °FSunny.16 mph38%29.80 "Hg10 mi
12:20 pm86 °FSunny.18 mph38%29.83 "Hg10 mi
11:50 am86 °FSunny.18 mph38%29.83 "Hg10 mi
11:20 am84 °FSunny.18 mph43%29.83 "Hg10 mi
10:50 am82 °FSunny.16 mph45%29.83 "Hg10 mi
10:20 am81 °FSunny.16 mph48%29.80 "Hg10 mi
9:50 am81 °FSunny.16 mph48%29.80 "Hg10 mi
9:20 am81 °FPassing clouds.16 mph51%29.83 "HgN/A
8:50 am79 °FPassing clouds.16 mph54%29.83 "HgN/A
8:20 am79 °FSunny.16 mph51%29.83 "Hg10 mi
7:50 am77 °FSunny.17 mph54%29.83 "Hg10 mi
7:20 am77 °FSunny.15 mph57%29.83 "Hg10 mi
6:50 am77 °FSunny.17 mph57%29.83 "Hg10 mi
6:20 am77 °FSunny.17 mph57%29.80 "Hg10 mi
5:50 am77 °FClear.17 mph57%29.80 "Hg10 mi
5:20 am77 °FClear.16 mph57%29.83 "Hg10 mi
4:50 am79 °FClear.14 mph58%29.83 "Hg10 mi
4:20 am79 °FClear.14 mph58%29.83 "Hg10 mi
3:50 am77 °FClear.18 mph61%29.83 "Hg10 mi
3:20 am77 °FClear.16 mph65%29.83 "Hg10 mi
2:20 am77 °FClear.18 mph69%29.83 "Hg10 mi
1:50 am77 °FClear.20 mph65%29.83 "Hg10 mi
1:20 am79 °FClear.17 mph61%29.83 "Hg10 mi
12:50 am81 °FClear.18 mph58%29.83 "Hg10 mi
12:20 am81 °FClear.16 mph58%29.83 "Hg10 mi
11:50 pm
Sun, Jul 21
81 °FClear.17 mph58%29.83 "Hg10 mi
11:20 pm81 °FClear.18 mph58%29.83 "Hg10 mi
10:50 pm82 °FPassing clouds.17 mph55%29.83 "HgN/A
10:20 pm82 °FClear.17 mph55%29.83 "Hg10 mi
9:50 pm82 °FClear.17 mph51%29.83 "Hg10 mi
9:20 pm82 °FClear.13 mph51%29.83 "Hg10 mi
8:50 pm84 °FClear.14 mph45%29.83 "Hg10 mi
8:20 pm84 °FSunny.14 mph48%29.83 "Hg10 mi
7:50 pm86 °FPassing clouds.16 mph43%29.83 "HgN/A
7:20 pm88 °FPassing clouds.17 mph40%29.83 "HgN/A
6:50 pm88 °FPassing clouds.16 mph40%29.83 "HgN/A
6:20 pm88 °FPassing clouds.12 mph43%29.83 "HgN/A
5:50 pm90 °FPassing clouds.15 mph41%29.83 "HgN/A
5:20 pm91 °FPassing clouds.18 mph38%29.83 "HgN/A
Weather by CustomWeather, © 2019

See weather overview